�������r�C�����j�^�v���󋵏��
Date,Time,5�C6���@���p�r�C��,����,����(m/s)
2022/06/15,00:00,3.8,�k��,3.1
2022/06/15,00:10,3.8,�k��,3.4
2022/06/15,00:20,3.8,�k�k��,3.0
2022/06/15,00:30,3.9,�k�k��,2.6
2022/06/15,00:40,3.6,�k��,3.3
2022/06/15,00:50,3.8,�k��,3.0
2022/06/15,01:00,3.8,�k�k��,2.3
2022/06/15,01:10,3.7,�k��,3.5
2022/06/15,01:20,3.8,�k��,3.6
2022/06/15,01:30,3.8,�k�k��,3.9
2022/06/15,01:40,3.8,�k�k��,3.2
2022/06/15,01:50,3.9,�k�k��,3.0
2022/06/15,02:00,3.7,�k�k��,3.8
2022/06/15,02:10,3.9,�k,4.3
2022/06/15,02:20,3.8,�k,4.9
2022/06/15,02:30,4.0,�k�k��,6.3
2022/06/15,02:40,3.9,�k�k��,5.4
2022/06/15,02:50,3.7,�k�k��,5.5
2022/06/15,03:00,3.9,�k�k��,4.9
2022/06/15,03:10,3.9,�k�k��,5.5
2022/06/15,03:20,3.8,�k�k��,5.6
2022/06/15,03:30,3.9,�k�k��,6.0
2022/06/15,03:40,4.0,�k�k��,5.1
2022/06/15,03:50,3.7,�k�k��,5.0
2022/06/15,04:00,3.9,�k�k��,4.2
2022/06/15,04:10,3.9,�k�k��,3.3
2022/06/15,04:20,3.8,�k�k��,3.4
2022/06/15,04:30,3.9,�k�k��,3.3
2022/06/15,04:40,3.8,�k�k��,3.0
2022/06/15,04:50,3.9,�k�k��,3.2
2022/06/15,05:00,3.9,�k,1.2
2022/06/15,05:10,3.8,�k,1.5
2022/06/15,05:20,3.9,�k��,2.6
2022/06/15,05:30,3.8,�k��,2.6
2022/06/15,05:40,3.7,�k��,3.2
2022/06/15,05:50,3.8,�k��,2.2
2022/06/15,06:00,3.7,�k��,1.7
2022/06/15,06:10,3.9,�k��,1.5
2022/06/15,06:20,3.9,�k�k��,1.7
2022/06/15,06:30,3.7,�k�k��,0.9
2022/06/15,06:40,3.7,�k��,1.2
2022/06/15,06:50,3.8,�k��,0.9
2022/06/15,07:00,3.9,���k��,1.2
2022/06/15,07:10,3.9,-,CALM
2022/06/15,07:20,4.0,-,CALM
2022/06/15,07:30,3.9,-,CALM
2022/06/15,07:40,3.9,���쓌,0.6
2022/06/15,07:50,3.8,�쓌,1.4
2022/06/15,08:00,3.8,��,0.9
2022/06/15,08:10,3.8,��쓌,0.9
2022/06/15,08:20,3.9,��쐼,1.7
2022/06/15,08:30,3.9,��쐼,1.4
2022/06/15,08:40,3.9,��쐼,1.4
2022/06/15,08:50,3.9,��,1.4
2022/06/15,09:00,3.9,��,2.0
2022/06/15,09:10,3.8,��,2.5
2022/06/15,09:20,3.7,��,3.1
2022/06/15,09:30,3.8,��,3.3
2022/06/15,09:40,3.9,��쓌,3.4
2022/06/15,09:50,3.8,��쓌,3.5
2022/06/15,10:00,3.7,��쓌,4.7
2022/06/15,10:10,3.7,��쓌,4.5
2022/06/15,10:20,3.9,��,4.0
2022/06/15,10:30,3.8,��,3.7
2022/06/15,10:40,3.7,��쓌,3.3
2022/06/15,10:50,3.9,��쓌,3.8
2022/06/15,11:00,3.7,��,3.5
2022/06/15,11:10,3.9,��쓌,3.6
2022/06/15,11:20,3.8,��쓌,3.3
2022/06/15,11:30,4.0,��쓌,3.2
2022/06/15,11:40,3.9,��쓌,3.2
2022/06/15,11:50,3.9,��쓌,3.8
2022/06/15,12:00,3.7,��쓌,4.4
2022/06/15,12:10,3.9,��쓌,4.5
2022/06/15,12:20,3.9,��,4.6
2022/06/15,12:30,3.8,��,6.1
2022/06/15,12:40,3.7,��쓌,6.3
2022/06/15,12:50,3.8,��,6.2
2022/06/15,13:00,3.7,��쓌,6.1
2022/06/15,13:10,3.8,��쓌,5.8
2022/06/15,13:20,3.8,��쓌,6.2
2022/06/15,13:30,4.0,��쓌,6.2
2022/06/15,13:40,3.8,��쓌,5.9
2022/06/15,13:50,3.9,��,4.1
2022/06/15,14:00,3.7,��,4.0
2022/06/15,14:10,3.8,��쓌,4.0
2022/06/15,14:20,3.9,��쓌,4.2
2022/06/15,14:30,3.9,��쓌,5.7
2022/06/15,14:40,3.7,��,5.0
2022/06/15,14:50,3.8,��,5.4
2022/06/15,15:00,3.8,��,3.3
2022/06/15,15:10,3.8,��,3.6
2022/06/15,15:20,3.9,��쓌,4.8
2022/06/15,15:30,3.9,��,6.7
2022/06/15,15:40,4.0,��쓌,7.1
2022/06/15,15:50,3.9,��쓌,8.1
2022/06/15,16:00,3.8,��쓌,8.2
2022/06/15,16:10,4.0,��쓌,7.5
2022/06/15,16:20,3.8,��,6.8
2022/06/15,16:30,3.8,��,5.6
2022/06/15,16:40,3.9,��쓌,5.9
2022/06/15,16:50,3.6,��쓌,7.2
2022/06/15,17:00,3.9,��쓌,6.8
2022/06/15,17:10,3.8,��,4.7
2022/06/15,17:20,3.8,��쓌,5.5
2022/06/15,17:30,3.8,��쓌,6.2
2022/06/15,17:40,3.9,��쓌,7.6
2022/06/15,17:50,3.7,��쓌,7.6
2022/06/15,18:00,4.0,��쓌,8.4
2022/06/15,18:10,4.0,��쓌,8.5
2022/06/15,18:20,3.9,��,8.0
2022/06/15,18:30,3.8,��쓌,7.6
2022/06/15,18:40,3.9,��쓌,6.6
2022/06/15,18:50,3.9,��,6.2
2022/06/15,19:00,3.8,��쓌,6.3
2022/06/15,19:10,3.8,��쓌,4.7
2022/06/15,19:20,3.9,��쓌,5.2
2022/06/15,19:30,3.9,��쓌,6.0
2022/06/15,19:40,3.9,��,7.1
2022/06/15,19:50,3.8,��쓌,7.6
2022/06/15,20:00,3.8,��쓌,5.3
2022/06/15,20:10,3.8,��,5.4
2022/06/15,20:20,3.7,��,3.8
2022/06/15,20:30,3.8,��,4.1
2022/06/15,20:40,3.8,��,4.6
2022/06/15,20:50,4.0,��,4.4
2022/06/15,21:00,3.8,��,5.2
2022/06/15,21:10,4.0,��,5.9
2022/06/15,21:20,3.7,��,5.7
2022/06/15,21:30,3.5,��,5.9
2022/06/15,21:40,3.8,��,5.9
2022/06/15,21:50,3.9,��,5.6
2022/06/15,22:00,3.9,��,5.7
2022/06/15,22:10,3.8,��,6.0
2022/06/15,22:20,4.0,��,5.9
2022/06/15,22:30,3.8,��,5.6
2022/06/15,22:40,3.7,��,6.8
2022/06/15,22:50,3.8,��,6.2
2022/06/15,23:00,3.8,��,5.6
2022/06/15,23:10,3.8,��,6.0
2022/06/15,23:20,3.7,��,5.3
2022/06/15,23:30,3.8,��,5.5
2022/06/15,23:40,3.9,��,5.2
2022/06/15,23:50,4.0,��,5.0
